This is the latest recevied weather packets stored in our database for station/object R8AHC-13. If no packets are shown the sender has not sent any weather packets the latest 10 day(s).
| Time | Temp. | Humidity | Pressure | Rain* | Wind** | Luminosity | Snow |
|---|---|---|---|---|---|---|---|
| 1777559822 | 12.78° C | 38% | 1017 hPa | - | 1.79 m/s, 140° | - | - |
| 1777556222 | 12.78° C | 38% | 1017 hPa | - | 1.79 m/s, 140° | - | - |
| 1777549022 | 11.11° C | 43% | 1018 hPa | - | 3.13 m/s, 140° | - | - |
| 1777545422 | 11.11° C | 43% | 1019 hPa | - | 1.79 m/s, 180° | - | - |
| 1777541822 | 11.11° C | 43% | 1019 hPa | - | 1.79 m/s, 230° | - | - |
| 1777538221 | 11.11° C | 43% | 1020 hPa | - | 0.89 m/s, 230° | - | - |
| 1777534621 | 11.11° C | 43% | 1020 hPa | - | 1.79 m/s, 130° | - | - |
| 1777531022 | 11.11° C | 43% | 1021 hPa | - | 3.13 m/s, 290° | - | - |
| 1777527422 | 11.11° C | 43% | 1021 hPa | - | 0.89 m/s, 10° | - | - |
| 1777523822 | 11.11° C | 43% | 1022 hPa | - | 3.13 m/s, 300° | - | - |
| 1777516622 | 7.22° C | 39% | 1022 hPa | - | 1.79 m/s, 320° | - | - |
| 1777513022 | 7.22° C | 39% | 1022 hPa | - | 0.89 m/s, 260° | - | - |
| 1777509422 | 7.22° C | 39% | 1022 hPa | - | 1.79 m/s, 310° | - | - |
| 1777505823 | 7.22° C | 39% | 1022 hPa | - | 0.89 m/s, 310° | - | - |
| 1777502222 | 7.22° C | 39% | 1022 hPa | - | 1.79 m/s, 310° | - | - |
| 1777498622 | 7.22° C | 39% | 1022 hPa | - | 3.13 m/s, 310° | - | - |
| 1777495022 | 7.22° C | 39% | 1021 hPa | - | 4.02 m/s, 300° | - | - |
| 1777491421 | 7.22° C | 39% | 1021 hPa | - | 3.13 m/s, 270° | - | - |
| 1777487822 | 12.22° C | 30% | 1021 hPa | - | 1.79 m/s, 270° | - | - |
| 1777484222 | 12.22° C | 30% | 1020 hPa | - | 0.89 m/s, 190° | - | - |
| 1777480622 | 12.22° C | 30% | 1020 hPa | - | 0.89 m/s, 260° | - | - |
| 1777477023 | 12.22° C | 30% | 1019 hPa | - | 3.13 m/s, 290° | - | - |
| 1777473422 | 12.22° C | 30% | 1018 hPa | - | 4.92 m/s, 280° | - | - |
| 1777469822 | 12.22° C | 30% | 1018 hPa | - | 5.81 m/s, 270° | - | - |
| 1777466223 | 12.22° C | 30% | 1018 hPa | - | 7.15 m/s, 260° | - | - |
* Rain since midnight (hover to see other rain measurements)
** Current wind speed in m/s (hover to see current wind gust speed)